When you browse on this site, cookies collect data to enhance your experience and personalize the content and advertising you see.
Visit our Privacy Policy to learn more. By continuing to use the site, you agree to this use of cookies and data.
  • In Lithuania
  • List of Countries
  • For 7 days
  • Water Temperature
  • Satellite Maps
  • Weather Map
  • Weather Widgets
  • user-avatar
    Login

    Hourly Weather Nizhnepodpolnyy

    Today, 24 February, Sunday

    Time Temperature Precipitation Wind Pressure Humidity
    00:00 -9°C° 0 mm 3 mps 772 mmHg 89%
    01:00 -9°C° 0 mm 3 mps 773 mmHg 89%
    02:00 -9°C° 0 mm 3 mps 773 mmHg 89%
    03:00 -9°C° 0 mm 3 mps 773 mmHg 90%
    04:00 -10°C° 0 mm 3 mps 773 mmHg 90%
    05:00 -10°C° 0 mm 3 mps 773 mmHg 91%
    06:00 -10°C° 0 mm 3 mps 773 mmHg 91%
    07:00 -10°C° 0 mm 3 mps 773 mmHg 90%
    08:00 -10°C° 0 mm 3 mps 773 mmHg 89%
    09:00 -10°C° 0 mm 3 mps 774 mmHg 88%
    10:00 -7°C° 0 mm 2 mps 774 mmHg 85%
    11:00 -6°C° 0 mm 2 mps 774 mmHg 81%
    12:00 -5°C° 0 mm 2 mps 774 mmHg 77%
    13:00 -5°C° 0 mm 2 mps 773 mmHg 76%
    14:00 -4°C° 0 mm 2 mps 773 mmHg 75%
    15:00 -4°C° 0 mm 2 mps 773 mmHg 74%
    16:00 -5°C° 0 mm 2 mps 773 mmHg 77%
    17:00 -6°C° 0 mm 2 mps 773 mmHg 80%
    18:00 -4°C° 0 mm 1 mps 773 mmHg 83%
    19:00 -6°C° 0 mm 1 mps 773 mmHg 84%
    20:00 -6°C° 0 mm 1 mps 773 mmHg 85%
    21:00 -7°C° 0 mm 1 mps 773 mmHg 85%
    22:00 -7°C° 0 mm 1 mps 773 mmHg 84%
    23:00 -7°C° 0 mm 1 mps 773 mmHg 83%

    Tomorrow, 25 February, Monday

    Time Temperature Precipitation Wind Pressure Humidity
    00:00 -7°C° 0 mm 1 mps 773 mmHg 82%
    01:00 -8°C° 0 mm 2 mps 773 mmHg 83%
    02:00 -8°C° 0 mm 2 mps 772 mmHg 84%
    03:00 -8°C° 0 mm 3 mps 772 mmHg 85%
    04:00 -8°C° 0 mm 3 mps 772 mmHg 84%
    05:00 -7°C° 0 mm 3 mps 771 mmHg 83%
    06:00 -8°C° 0 mm 4 mps 771 mmHg 83%
    07:00 -7°C° 0 mm 4 mps 770 mmHg 81%
    08:00 -7°C° 0 mm 4 mps 770 mmHg 80%
    09:00 -5°C° 0 mm 4 mps 770 mmHg 78%
    10:00 -5°C° 0 mm 5 mps 769 mmHg 79%
    11:00 -4°C° 0 mm 5 mps 769 mmHg 79%
    12:00 -3°C° 0 mm 6 mps 768 mmHg 79%
    13:00 -3°C° 0 mm 6 mps 767 mmHg 79%
    14:00 -2°C° 0 mm 6 mps 767 mmHg 79%
    15:00 -2°C° 0 mm 7 mps 766 mmHg 79%
    16:00 -3°C° 0.1 mm 7 mps 765 mmHg 80%
    17:00 -3°C° 0.1 mm 7 mps 765 mmHg 81%
    18:00 -3°C° 0.1 mm 7 mps 764 mmHg 81%
    19:00 -3°C° 0.4 mm 7 mps 763 mmHg 84%
    20:00 -3°C° 0.4 mm 7 mps 763 mmHg 87%
    21:00 -3°C° 0.4 mm 7 mps 762 mmHg 90%
    22:00 -3°C° 0.3 mm 7 mps 762 mmHg 90%
    23:00 -3°C° 0.3 mm 7 mps 761 mmHg 90%

    Day after tomorrow, 26 February, Tuesday

    Time Temperature Precipitation Wind Pressure Humidity
    00:00 -2°C° 0.3 mm 7 mps 760 mmHg 89%
    01:00 -3°C° 0.1 mm 6 mps 760 mmHg 90%
    02:00 -2°C° 0.1 mm 5 mps 759 mmHg 90%
    03:00 -2°C° 0.1 mm 5 mps 759 mmHg 91%
    04:00 -2°C° 0 mm 5 mps 758 mmHg 91%
    05:00 -2°C° 0 mm 4 mps 758 mmHg 91%
    06:00 -2°C° 0 mm 4 mps 757 mmHg 91%
    07:00 -2°C° 0.1 mm 5 mps 757 mmHg 91%
    08:00 -2°C° 0.1 mm 5 mps 757 mmHg 91%
    09:00 -2°C° 0.1 mm 5 mps 757 mmHg 91%
    10:00 -1°C° 0.1 mm 5 mps 756 mmHg 90%
    11:00 -1°C° 0.1 mm 5 mps 756 mmHg 90%
    12:00 0°C° 0.1 mm 5 mps 756 mmHg 90%
    13:00 0°C° 0.1 mm 5 mps 755 mmHg 88%
    14:00 0°C° 0.1 mm 5 mps 755 mmHg 87%
    15:00 0°C° 0.1 mm 5 mps 754 mmHg 85%
    16:00 0°C° 0 mm 4 mps 754 mmHg 86%
    17:00 -1°C° 0 mm 4 mps 754 mmHg 87%
    18:00 -1°C° 0 mm 4 mps 754 mmHg 88%
    19:00 -1°C° 0 mm 4 mps 754 mmHg 89%
    20:00 -1°C° 0 mm 3 mps 754 mmHg 91%
    21:00 -1°C° 0 mm 3 mps 754 mmHg 92%
    22:00 -1°C° 0.1 mm 3 mps 754 mmHg 92%
    23:00 -1°C° 0.1 mm 3 mps 754 mmHg 93%

    27 February, Wednesday

    Time Temperature Precipitation Wind Pressure Humidity
    00:00 -1°C° 0.1 mm 3 mps 754 mmHg 94%
    01:00 -1°C° 0.1 mm 2 mps 754 mmHg 94%
    02:00 -1°C° 0.1 mm 2 mps 754 mmHg 95%
    03:00 -1°C° 0.1 mm 2 mps 754 mmHg 95%
    04:00 -1°C° 0 mm 2 mps 754 mmHg 95%
    05:00 -2°C° 0 mm 2 mps 754 mmHg 94%
    06:00 -2°C° 0 mm 2 mps 754 mmHg 94%
    07:00 -2°C° 0 mm 2 mps 755 mmHg 92%
    08:00 -1°C° 0 mm 3 mps 755 mmHg 91%
    09:00 -1°C° 0 mm 3 mps 756 mmHg 89%
    10:00 0°C° 0 mm 3 mps 756 mmHg 87%
    11:00 +1°C° 0 mm 3 mps 756 mmHg 85%
    12:00 +1°C° 0 mm 3 mps 756 mmHg 83%
    13:00 +1°C° 0.1 mm 3 mps 756 mmHg 82%
    14:00 +1°C° 0.1 mm 3 mps 756 mmHg 81%
    15:00 +1°C° 0.1 mm 3 mps 757 mmHg 80%
    16:00 0°C° 0 mm 3 mps 757 mmHg 81%
    17:00 0°C° 0 mm 3 mps 757 mmHg 82%
    18:00 -1°C° 0 mm 3 mps 758 mmHg 83%
    19:00 -1°C° 0 mm 2 mps 758 mmHg 84%
    20:00 -1°C° 0 mm 2 mps 758 mmHg 85%
    21:00 -1°C° 0 mm 2 mps 759 mmHg 85%
    22:00 -1°C° 0 mm 2 mps 759 mmHg 87%
    23:00 -2°C° 0 mm 2 mps 759 mmHg 88%

    28 February, Thursday

    Time Temperature Precipitation Wind Pressure Humidity
    00:00 -2°C° 0 mm 2 mps 759 mmHg 90%
    01:00 -2°C° 0 mm 2 mps 759 mmHg 91%
    02:00 -2°C° 0 mm 2 mps 759 mmHg 92%
    03:00 -3°C° 0 mm 2 mps 760 mmHg 93%
    04:00 -3°C° 0 mm 2 mps 759 mmHg 92%
    05:00 -3°C° 0 mm 2 mps 759 mmHg 91%
    06:00 -3°C° 0 mm 2 mps 759 mmHg 90%
    07:00 -3°C° 0 mm 2 mps 759 mmHg 86%
    08:00 -2°C° 0 mm 3 mps 759 mmHg 81%
    09:00 -2°C° 0 mm 3 mps 759 mmHg 77%
    10:00 -2°C° 0 mm 4 mps 759 mmHg 73%
    11:00 -1°C° 0 mm 4 mps 758 mmHg 69%
    12:00 -1°C° 0 mm 5 mps 758 mmHg 66%
    13:00 -1°C° 0 mm 6 mps 757 mmHg 66%
    14:00 -1°C° 0 mm 6 mps 757 mmHg 66%
    15:00 -1°C° 0 mm 7 mps 756 mmHg 66%
    16:00 -1°C° 0 mm 7 mps 756 mmHg 69%
    17:00 -2°C° 0 mm 7 mps 755 mmHg 72%
    18:00 -2°C° 0 mm 6 mps 755 mmHg 75%
    19:00 -3°C° 0.2 mm 7 mps 755 mmHg 79%
    20:00 -3°C° 0.2 mm 7 mps 754 mmHg 83%
    21:00 -3°C° 0.2 mm 7 mps 754 mmHg 86%
    22:00 -4°C° 0.3 mm 8 mps 753 mmHg 85%
    23:00 -2°C° 0.3 mm 8 mps 752 mmHg 84%

    1 March, Friday

    Time Temperature Precipitation Wind Pressure Humidity
    00:00 -2°C° 0.3 mm 8 mps 751 mmHg 83%
    01:00 -3°C° 0.5 mm 9 mps 750 mmHg 84%
    02:00 -3°C° 0.5 mm 9 mps 749 mmHg 85%
    03:00 -2°C° 0.5 mm 10 mps 748 mmHg 87%
    04:00 -2°C° 1.2 mm 10 mps 747 mmHg 88%
    05:00 -2°C° 1.2 mm 10 mps 746 mmHg 89%
    06:00 -2°C° 1.2 mm 10 mps 745 mmHg 91%
    07:00 0°C° 0.8 mm 9 mps 745 mmHg 92%
    08:00 0°C° 0.8 mm 9 mps 745 mmHg 93%
    09:00 0°C° 0.8 mm 9 mps 744 mmHg 94%
    10:00 0°C° 0.2 mm 8 mps 744 mmHg 91%
    11:00 +1°C° 0.2 mm 8 mps 744 mmHg 88%
    12:00 +1°C° 0.2 mm 8 mps 744 mmHg 86%
    13:00 +1°C° 0.1 mm 8 mps 744 mmHg 82%
    14:00 +1°C° 0.1 mm 8 mps 745 mmHg 78%
    15:00 +1°C° 0.1 mm 8 mps 745 mmHg 74%
    16:00 +1°C° 0.3 mm 8 mps 745 mmHg 76%
    17:00 0°C° 0.3 mm 8 mps 746 mmHg 78%
    18:00 0°C° 0.3 mm 8 mps 746 mmHg 79%
    19:00 0°C° 0.1 mm 7 mps 747 mmHg 81%
    20:00 -1°C° 0.1 mm 7 mps 747 mmHg 82%
    21:00 -1°C° 0.1 mm 7 mps 748 mmHg 83%
    22:00 -1°C° 0 mm 6 mps 748 mmHg 84%
    23:00 -1°C° 0 mm 5 mps 749 mmHg 85%
    Show more